This is the latest recevied weather packets stored in our database for station/object VK4NB-13. If no packets are shown the sender has not sent any weather packets the latest 10 day(s).
| Time | Temp. | Humidity | Pressure | Rain* | Wind** | Luminosity | Snow |
|---|---|---|---|---|---|---|---|
| 1777957203 | 28.33° C | 64% | 1013.8 hPa | 0 mm | - | - | - |
| 1777951203 | 28.33° C | 59% | 1014 hPa | 0 mm | - | - | - |
| 1777950903 | 28.33° C | 61% | 1014.1 hPa | 0 mm | - | - | - |
| 1777950303 | 28.33° C | 59% | 1014.4 hPa | 0 mm | - | - | - |
| 1777949703 | 27.78° C | 62% | 1014.5 hPa | 0 mm | - | - | - |
| 1777947603 | 28.33° C | 69% | 1014.9 hPa | 0 mm | - | - | - |
| 1777947003 | 27.78° C | 67% | 1015.3 hPa | 0 mm | - | - | - |
| 1777945525 | 26.67° C | 69% | 1015.5 hPa | 0 mm | - | - | - |
| 1777944303 | 26.11° C | 74% | 1015.6 hPa | 0 mm | - | - | - |
| 1777942200 | 26.67° C | 73% | 1016.4 hPa | 0 mm | - | - | - |
| 1777941601 | 25.56° C | 77% | 1016 hPa | 0 mm | - | - | - |
| 1777939201 | 26.11° C | 77% | 1016.4 hPa | 0 mm | - | - | - |
| 1777938900 | 26.11° C | 81% | 1016.8 hPa | 0 mm | - | - | - |
| 1777938621 | 26.11° C | 79% | 1016.8 hPa | 0 mm | - | - | - |
| 1777937401 | 24.44° C | 84% | 1017 hPa | 0 mm | - | - | - |
| 1777935622 | 23.33° C | 86% | 1017.1 hPa | 0 mm | - | - | - |
| 1777935001 | 23.33° C | 87% | 1017 hPa | 0 mm | - | - | - |
| 1777933201 | 22.78° C | 91% | 1017.1 hPa | 0 mm | - | - | - |
| 1777929022 | 19.44° C | 99% | 1016.7 hPa | 0 mm | - | - | - |
| 1777928722 | 19.44° C | 99% | 1016.6 hPa | 0 mm | - | - | - |
| 1777927801 | 19.44° C | 99% | 1016.2 hPa | 0 mm | - | - | - |
| 1777927201 | 18.33° C | 99% | 1016.2 hPa | 0 mm | - | - | - |
| 1777926001 | 17.78° C | 99% | 1015.9 hPa | 0 mm | - | - | - |
| 1777923001 | 18.33° C | 99% | 1015.7 hPa | 0 mm | - | - | - |
| 1777922101 | 18.89° C | 99% | 1015.6 hPa | 0 mm | - | - | - |
* Rain latest hour (hover to see other rain measurements)
** Current wind speed in m/s (hover to see current wind gust speed)